TimeMST,TemperatureF,Dew PointF,Humidity,Sea Level PressureIn,VisibilityMPH,Wind Direction,Wind SpeedMPH,Gust SpeedMPH,PrecipitationIn,Events,Conditions,WindDirDegrees,DateUTC
12:53 AM,8.1,5.0,87,30.43,10.0,WNW,8.1,-,N/A,,Clear,290,2013-02-15 07:53:00
1:53 AM,7.0,3.0,84,30.43,10.0,West,10.4,-,N/A,,Clear,270,2013-02-15 08:53:00
2:53 AM,9.0,5.0,84,30.40,10.0,WNW,3.5,-,N/A,,Mostly Cloudy,290,2013-02-15 09:53:00
3:53 AM,12.9,8.1,81,30.40,10.0,West,5.8,-,N/A,,Overcast,280,2013-02-15 10:53:00
4:53 AM,16.0,10.9,81,30.40,10.0,WNW,8.1,-,N/A,,Overcast,290,2013-02-15 11:53:00
5:53 AM,18.0,12.9,81,30.41,10.0,WNW,6.9,-,N/A,,Overcast,290,2013-02-15 12:53:00
6:53 AM,19.9,14.0,78,30.41,10.0,WNW,6.9,-,N/A,,Overcast,290,2013-02-15 13:53:00
7:53 AM,21.0,14.0,74,30.42,10.0,West,9.2,-,N/A,,Mostly Cloudy,280,2013-02-15 14:53:00
8:53 AM,24.1,16.0,71,30.42,10.0,WNW,10.4,-,N/A,,Scattered Clouds,300,2013-02-15 15:53:00
9:39 AM,26.6,17.6,69,30.27,2.5,NW,11.5,-,0.00,Snow,Light Snow,310,2013-02-15 16:39:00
9:53 AM,26.1,19.9,78,30.43,1.2,NNW,12.7,-,0.00,Snow,Light Snow,340,2013-02-15 16:53:00
10:03 AM,26.6,19.4,74,30.27,3.0,NNW,10.4,-,0.00,Snow,Light Snow,330,2013-02-15 17:03:00
10:08 AM,26.6,19.4,74,30.27,1.8,NW,12.7,-,0.00,Snow,Light Snow,320,2013-02-15 17:08:00
10:30 AM,26.6,21.2,80,30.27,1.0,NNW,17.3,-,0.00,Snow,Light Snow,340,2013-02-15 17:30:00
10:37 AM,26.6,21.2,80,30.28,2.0,NNW,19.6,-,0.00,Snow,Light Snow,340,2013-02-15 17:37:00
10:53 AM,27.0,21.0,78,30.43,1.0,NNW,15.0,-,0.00,Snow,Light Snow,340,2013-02-15 17:53:00
11:20 AM,26.6,21.2,80,30.28,1.2,NNW,16.1,-,0.00,Snow,Light Snow,330,2013-02-15 18:20:00
11:27 AM,26.6,21.2,80,30.28,1.5,NNW,16.1,-,0.00,Snow,Light Snow,330,2013-02-15 18:27:00
11:36 AM,26.6,21.2,80,30.28,2.0,NNW,13.8,-,0.00,Snow,Light Snow,330,2013-02-15 18:36:00
11:44 AM,26.6,21.2,80,30.28,1.2,NNW,12.7,-,0.00,Snow,Light Snow,340,2013-02-15 18:44:00
11:50 AM,26.6,21.2,80,30.27,1.2,NNW,13.8,-,0.00,Snow,Light Snow,330,2013-02-15 18:50:00
11:53 AM,27.0,21.9,81,30.43,1.5,NW,15.0,-,0.00,Snow,Light Snow,320,2013-02-15 18:53:00
11:56 AM,28.4,21.2,74,30.27,2.5,NNW,16.1,-,0.00,Snow,Light Snow,340,2013-02-15 18:56:00
12:03 PM,28.4,21.2,74,30.27,9.0,NNW,15.0,-,0.00,,Mostly Cloudy,330,2013-02-15 19:03:00
12:53 PM,28.9,21.0,72,30.43,4.0,NNW,18.4,-,0.00,Snow,Light Snow,330,2013-02-15 19:53:00
1:05 PM,26.6,21.2,80,30.27,1.8,NNE,16.1,-,0.00,Snow,Light Snow,30,2013-02-15 20:05:00
1:09 PM,26.6,21.2,80,30.26,1.0,NE,13.8,-,0.00,Snow,Light Snow,40,2013-02-15 20:09:00
1:12 PM,26.6,21.2,80,30.27,0.8,NNE,15.0,-,0.00,Snow,Light Snow,30,2013-02-15 20:12:00
1:24 PM,26.6,21.2,80,30.27,1.0,North,16.1,-,0.00,Snow,Light Snow,10,2013-02-15 20:24:00
1:34 PM,26.6,21.2,80,30.27,0.8,NNE,16.1,-,0.00,Snow,Light Snow,20,2013-02-15 20:34:00
1:46 PM,26.6,21.2,80,30.27,1.0,NNE,16.1,-,0.00,Snow,Light Snow,30,2013-02-15 20:46:00
1:53 PM,26.1,21.0,81,30.46,1.8,NNE,13.8,-,0.00,Snow,Light Snow,20,2013-02-15 20:53:00
1:59 PM,26.6,21.2,80,30.28,2.0,NNE,16.1,-,0.00,Snow,Light Snow,20,2013-02-15 20:59:00
2:05 PM,26.6,21.2,80,30.28,3.0,NNE,11.5,-,0.00,Snow,Light Snow,30,2013-02-15 21:05:00
2:22 PM,26.6,21.2,80,30.28,2.5,NNE,9.2,-,0.00,Snow,Light Snow,20,2013-02-15 21:22:00
2:25 PM,26.6,21.2,80,30.28,3.0,NNE,6.9,-,0.00,Snow,Light Snow,20,2013-02-15 21:25:00
2:53 PM,27.0,21.0,78,30.46,8.0,North,11.5,-,0.00,,Overcast,10,2013-02-15 21:53:00
3:53 PM,27.0,19.9,75,30.44,10.0,NNW,12.7,-,0.00,,Overcast,330,2013-02-15 22:53:00
4:03 PM,28.4,19.4,69,30.28,10.0,NW,13.8,19.6,N/A,,Mostly Cloudy,320,2013-02-15 23:03:00
4:53 PM,26.1,19.0,75,30.42,10.0,NW,12.7,-,N/A,,Overcast,320,2013-02-15 23:53:00
5:53 PM,25.0,19.0,78,30.41,10.0,NW,5.8,-,N/A,,Overcast,320,2013-02-16 00:53:00
6:53 PM,21.0,18.0,88,30.40,10.0,NW,4.6,-,N/A,,Partly Cloudy,320,2013-02-16 01:53:00
7:53 PM,17.1,12.0,81,30.43,10.0,WSW,6.9,-,N/A,,Overcast,240,2013-02-16 02:53:00
8:53 PM,14.0,9.0,80,30.41,10.0,WSW,5.8,-,N/A,,Mostly Cloudy,240,2013-02-16 03:53:00
9:53 PM,12.0,8.1,84,30.40,10.0,WSW,8.1,-,N/A,,Partly Cloudy,240,2013-02-16 04:53:00
10:53 PM,21.0,16.0,81,30.36,10.0,WSW,11.5,-,N/A,,Overcast,240,2013-02-16 05:53:00
11:53 PM,23.0,18.0,81,30.32,10.0,WSW,9.2,-,N/A,,Overcast,240,2013-02-16 06:53:00